TimeEST,TemperatureF,Dew PointF,Humidity,Sea Level PressureIn,VisibilityMPH,Wind Direction,Wind SpeedMPH,Gust SpeedMPH,PrecipitationIn,Events,Conditions,WindDirDegrees,DateUTC
12:14 AM,42.1,40.3,93,29.64,1.2,Calm,Calm,-,N/A,Rain,Light Rain,0,2012-12-10 05:14:00
12:35 AM,43.0,41.2,93,29.64,1.0,Calm,Calm,-,N/A,,Overcast,0,2012-12-10 05:35:00
12:54 AM,43.7,41.9,93,29.64,1.2,West,3.5,-,N/A,,Overcast,280,2012-12-10 05:54:00
1:15 AM,43.2,41.4,93,29.64,1.8,West,4.6,-,N/A,,Overcast,260,2012-12-10 06:15:00
1:34 AM,43.0,41.2,93,29.64,2.5,West,5.8,-,N/A,,Overcast,270,2012-12-10 06:34:00
1:54 AM,43.0,41.0,93,29.64,4.0,West,8.1,-,N/A,,Overcast,270,2012-12-10 06:54:00
2:15 AM,42.8,41.0,93,29.63,4.0,West,5.8,-,N/A,,Overcast,270,2012-12-10 07:15:00
2:34 AM,43.0,41.0,93,29.64,4.0,West,8.1,-,N/A,,Overcast,270,2012-12-10 07:34:00
2:55 AM,42.8,41.0,93,29.65,5.0,West,6.9,-,N/A,,Overcast,260,2012-12-10 07:55:00
3:15 AM,43.0,41.0,93,29.64,5.0,West,8.1,-,N/A,,Overcast,260,2012-12-10 08:15:00
3:55 AM,43.2,41.0,92,29.64,5.0,West,8.1,-,N/A,,Overcast,260,2012-12-10 08:55:00
4:14 AM,43.0,40.5,91,29.63,7.0,West,9.2,-,N/A,,Overcast,270,2012-12-10 09:14:00
4:34 AM,43.2,39.7,88,29.63,7.0,West,6.9,-,N/A,,Overcast,270,2012-12-10 09:34:00
4:55 AM,43.0,39.7,88,29.63,7.0,West,5.8,-,N/A,,Overcast,270,2012-12-10 09:55:00
5:14 AM,43.0,39.7,88,29.62,5.0,West,9.2,-,N/A,,Overcast,270,2012-12-10 10:14:00
5:34 AM,43.2,39.4,86,29.63,7.0,West,8.1,-,N/A,,Overcast,260,2012-12-10 10:34:00
5:54 AM,42.8,38.3,84,29.63,7.0,WSW,10.4,17.3,N/A,,Overcast,250,2012-12-10 10:54:00
6:14 AM,42.3,37.6,83,29.64,10.0,West,13.8,19.6,N/A,,Overcast,260,2012-12-10 11:14:00
6:35 AM,42.1,37.8,85,29.64,7.0,West,10.4,19.6,N/A,,Overcast,270,2012-12-10 11:35:00
6:54 AM,41.0,36.9,85,29.65,7.0,West,11.5,19.6,N/A,,Overcast,260,2012-12-10 11:54:00
7:14 AM,40.6,36.7,86,29.65,10.0,West,8.1,-,N/A,,Overcast,260,2012-12-10 12:14:00
7:35 AM,40.5,36.5,86,29.66,7.0,West,8.1,-,N/A,,Overcast,270,2012-12-10 12:35:00
7:54 AM,40.1,36.0,85,29.66,7.0,West,8.1,16.1,N/A,,Overcast,260,2012-12-10 12:54:00
8:14 AM,40.1,35.2,83,29.67,10.0,West,12.7,16.1,N/A,,Overcast,260,2012-12-10 13:14:00
8:35 AM,39.7,34.7,82,29.68,10.0,WSW,9.2,-,N/A,,Overcast,250,2012-12-10 13:35:00
8:54 AM,39.7,34.5,82,29.68,10.0,West,8.1,-,N/A,,Overcast,260,2012-12-10 13:54:00
9:15 AM,39.7,34.3,81,29.68,10.0,WSW,5.8,-,N/A,,Overcast,250,2012-12-10 14:15:00
9:34 AM,39.6,34.2,81,29.68,10.0,West,6.9,-,N/A,,Overcast,260,2012-12-10 14:34:00
9:54 AM,39.6,34.5,82,29.68,10.0,WSW,5.8,-,N/A,,Overcast,240,2012-12-10 14:54:00
10:15 AM,39.9,35.1,83,29.68,10.0,WSW,5.8,-,N/A,,Overcast,250,2012-12-10 15:15:00
10:34 AM,40.1,35.1,82,29.68,10.0,WSW,8.1,-,N/A,,Mostly Cloudy,250,2012-12-10 15:34:00
10:54 AM,40.1,34.9,82,29.68,10.0,West,8.1,-,N/A,,Mostly Cloudy,260,2012-12-10 15:54:00
11:14 AM,40.5,34.9,80,29.69,10.0,West,8.1,-,N/A,,Overcast,260,2012-12-10 16:14:00
11:34 AM,42.1,36.0,79,29.69,10.0,West,10.4,-,N/A,,Overcast,270,2012-12-10 16:34:00
11:55 AM,41.0,33.8,76,29.68,10.0,West,9.2,17.3,N/A,,Overcast,280,2012-12-10 16:55:00
12:14 PM,40.8,33.6,76,29.67,10.0,West,11.5,-,N/A,,Overcast,270,2012-12-10 17:14:00
12:34 PM,40.6,33.8,77,29.67,10.0,West,10.4,18.4,N/A,,Overcast,280,2012-12-10 17:34:00
12:55 PM,40.8,33.4,75,29.67,10.0,West,11.5,-,N/A,,Overcast,270,2012-12-10 17:55:00
1:14 PM,40.8,33.1,74,29.66,10.0,West,12.7,17.3,N/A,,Overcast,280,2012-12-10 18:14:00
1:34 PM,41.0,32.7,72,29.66,10.0,WNW,10.4,16.1,N/A,,Overcast,290,2012-12-10 18:34:00
1:55 PM,41.0,32.0,70,29.67,10.0,WNW,9.2,16.1,N/A,,Overcast,290,2012-12-10 18:55:00
2:14 PM,41.2,32.0,70,29.67,10.0,West,10.4,18.4,N/A,,Mostly Cloudy,280,2012-12-10 19:14:00
2:34 PM,41.2,32.0,70,29.68,10.0,West,10.4,-,N/A,,Overcast,280,2012-12-10 19:34:00
2:55 PM,40.6,32.0,71,29.68,10.0,West,8.1,-,N/A,,Overcast,270,2012-12-10 19:55:00
3:14 PM,40.3,32.2,73,29.68,10.0,West,8.1,-,N/A,,Overcast,260,2012-12-10 20:14:00
3:35 PM,40.1,32.0,73,29.69,10.0,West,9.2,-,N/A,,Overcast,280,2012-12-10 20:35:00
3:54 PM,39.7,32.0,74,29.70,10.0,West,9.2,-,N/A,,Overcast,280,2012-12-10 20:54:00
4:14 PM,39.4,32.0,75,29.70,10.0,West,8.1,-,N/A,,Overcast,280,2012-12-10 21:14:00
4:34 PM,39.2,32.0,75,29.70,10.0,West,6.9,-,N/A,,Overcast,280,2012-12-10 21:34:00
4:54 PM,39.2,32.0,75,29.71,10.0,West,5.8,-,N/A,,Overcast,280,2012-12-10 21:54:00
5:15 PM,38.3,30.6,74,29.72,10.0,NNW,8.1,-,N/A,,Overcast,330,2012-12-10 22:15:00
5:34 PM,37.4,30.6,76,29.73,10.0,North,11.5,-,N/A,,Overcast,350,2012-12-10 22:34:00
5:55 PM,36.3,29.5,76,29.75,10.0,NNW,9.2,16.1,N/A,,Overcast,340,2012-12-10 22:55:00
6:14 PM,35.1,28.0,76,29.76,10.0,NNW,9.2,-,N/A,,Mostly Cloudy,340,2012-12-10 23:14:00
6:34 PM,34.7,27.7,76,29.77,10.0,NNW,8.1,-,N/A,,Scattered Clouds,340,2012-12-10 23:34:00
6:55 PM,34.7,27.7,76,29.78,10.0,NNW,5.8,-,N/A,,Overcast,340,2012-12-10 23:55:00
7:14 PM,34.2,27.5,77,29.78,10.0,North,5.8,-,N/A,,Mostly Cloudy,350,2012-12-11 00:14:00
7:35 PM,34.3,27.3,76,29.79,10.0,North,6.9,-,N/A,,Overcast,350,2012-12-11 00:35:00
7:55 PM,34.3,27.1,75,29.80,10.0,NNW,4.6,-,N/A,,Overcast,340,2012-12-11 00:55:00
8:14 PM,34.3,26.4,73,29.80,10.0,North,3.5,-,N/A,,Overcast,350,2012-12-11 01:14:00
8:35 PM,34.5,25.7,70,29.81,10.0,NNW,6.9,-,N/A,,Overcast,330,2012-12-11 01:35:00
8:54 PM,34.3,25.5,70,29.81,10.0,NNW,5.8,-,N/A,,Overcast,330,2012-12-11 01:54:00
9:14 PM,34.2,24.8,69,29.82,10.0,NNW,5.8,-,N/A,,Overcast,340,2012-12-11 02:14:00
9:54 PM,33.8,26.2,74,29.83,10.0,Calm,Calm,-,N/A,,Overcast,0,2012-12-11 02:54:00
10:14 PM,33.8,26.2,74,29.84,10.0,West,4.6,-,N/A,,Overcast,280,2012-12-11 03:14:00
10:34 PM,33.8,26.6,75,29.84,10.0,Calm,Calm,-,N/A,,Overcast,0,2012-12-11 03:34:00
10:54 PM,34.0,27.3,77,29.85,10.0,WSW,3.5,-,N/A,,Overcast,250,2012-12-11 03:54:00
11:15 PM,33.3,27.3,79,29.86,10.0,WSW,4.6,-,N/A,,Overcast,250,2012-12-11 04:15:00
11:34 PM,33.4,27.7,79,29.87,10.0,Calm,Calm,-,N/A,,Overcast,0,2012-12-11 04:34:00
11:54 PM,33.8,28.4,81,29.87,10.0,West,3.5,-,N/A,,Overcast,270,2012-12-11 04:54:00